Location: Dennehotso
(36.8461°N, 109.8435°W)
Time: 21:30:27
(UTC+00:00)

N. Korean satellite - Pass Details

Date: 07 March 2021
Orbit: 452 x 499 km, 97.2° (Epoch: 15 April)

Event Time Altitude Azimuth Distance (km) Brightness Sun altitude
Rises 13:03:52 0° 3° (N) 2,541 10.3 -8.3°
Reaches altitude 10° 13:05:59 10° 357° (N) 1,665 9.2 -7.9°
Maximum altitude 13:09:23 42° 285° (WNW) 708 6.9 -7.2°
Drops below altitude 10° 13:12:48 10° 214° (SW) 1,677 9.0 -6.5°
Sets 13:14:57 0° 207° (SSW) 2,561 10.0 -6.1°
